Meteo pe oră la Dzieglewo

Astăzi, 7 Martie, Duminică

Timp Temperatura Precipitaţii Vânt Presiune Umiditate
00:00 -3°C° 0 mm 6 m/s 759 mmHg 77%
01:00 -3°C° 0 mm 6 m/s 758 mmHg 80%
02:00 -2°C° 0 mm 7 m/s 758 mmHg 81%
03:00 -2°C° 0 mm 7 m/s 757 mmHg 82%
04:00 -2°C° 0 mm 8 m/s 757 mmHg 83%
05:00 -2°C° 0 mm 8 m/s 757 mmHg 84%
06:00 -2°C° 0 mm 8 m/s 756 mmHg 85%
07:00 -3°C° 0 mm 9 m/s 756 mmHg 86%
08:00 -3°C° 0.1 mm 9 m/s 756 mmHg 80%
09:00 -3°C° 0.1 mm 9 m/s 755 mmHg 75%
10:00 -1°C° 0.1 mm 9 m/s 755 mmHg 70%
11:00 -1°C° 0 mm 9 m/s 755 mmHg 69%
12:00 -1°C° 0 mm 9 m/s 754 mmHg 68%
13:00 -1°C° 0 mm 9 m/s 754 mmHg 69%
14:00 -1°C° 0 mm 9 m/s 753 mmHg 71%
15:00 -1°C° 0 mm 9 m/s 753 mmHg 73%
16:00 -1°C° 0 mm 8 m/s 753 mmHg 75%
17:00 -1°C° 0 mm 8 m/s 753 mmHg 78%
18:00 -2°C° 0 mm 8 m/s 753 mmHg 81%
19:00 -2°C° 0 mm 7 m/s 753 mmHg 85%
20:00 -2°C° 0.5 mm 6 m/s 753 mmHg 87%
21:00 -2°C° 0.5 mm 5 m/s 753 mmHg 88%
22:00 -2°C° 0.5 mm 4 m/s 753 mmHg 90%
23:00 -2°C° 0.2 mm 3 m/s 753 mmHg 87%

Mâine, 8 Martie, Luni

Timp Temperatura Precipitaţii Vânt Presiune Umiditate
00:00 -2°C° 0.2 mm 3 m/s 753 mmHg 84%
01:00 -3°C° 0.2 mm 2 m/s 753 mmHg 81%
02:00 -3°C° 0 mm 2 m/s 753 mmHg 83%
03:00 -5°C° 0 mm 3 m/s 754 mmHg 86%
04:00 -5°C° 0 mm 3 m/s 754 mmHg 88%
05:00 -5°C° 0 mm 3 m/s 754 mmHg 84%
06:00 -5°C° 0 mm 3 m/s 754 mmHg 80%
07:00 -4°C° 0 mm 4 m/s 755 mmHg 77%
08:00 -3°C° 0 mm 4 m/s 755 mmHg 71%
09:00 -2°C° 0 mm 4 m/s 756 mmHg 65%
10:00 0°C° 0 mm 5 m/s 756 mmHg 60%
11:00 0°C° 0 mm 5 m/s 756 mmHg 58%
12:00 0°C° 0 mm 5 m/s 756 mmHg 56%
13:00 +1°C° 0 mm 5 m/s 756 mmHg 54%
14:00 +1°C° 0.1 mm 5 m/s 757 mmHg 56%
15:00 0°C° 0.1 mm 5 m/s 757 mmHg 58%
16:00 0°C° 0.1 mm 5 m/s 757 mmHg 59%
17:00 -1°C° 0 mm 4 m/s 757 mmHg 65%
18:00 -1°C° 0 mm 3 m/s 757 mmHg 71%
19:00 -2°C° 0 mm 3 m/s 758 mmHg 77%
20:00 -3°C° 0 mm 2 m/s 758 mmHg 79%
21:00 -3°C° 0 mm 2 m/s 758 mmHg 81%
22:00 -4°C° 0 mm 2 m/s 759 mmHg 82%
23:00 -4°C° 0 mm 2 m/s 759 mmHg 83%

Poimâine, 9 Martie, Marţi

Timp Temperatura Precipitaţii Vânt Presiune Umiditate
00:00 -2°C° 0 mm 1 m/s 759 mmHg 83%
01:00 -2°C° 0 mm 1 m/s 759 mmHg 83%
02:00 -2°C° 0 mm 1 m/s 759 mmHg 82%
03:00 -2°C° 0 mm 1 m/s 759 mmHg 82%
04:00 -2°C° 0 mm 1 m/s 758 mmHg 81%
05:00 -2°C° 0 mm 1 m/s 759 mmHg 79%
06:00 -2°C° 0 mm 0 m/s 759 mmHg 77%
07:00 -2°C° 0 mm 0 m/s 759 mmHg 76%
08:00 -2°C° 0 mm 0 m/s 759 mmHg 70%
09:00 -1°C° 0 mm 0 m/s 759 mmHg 65%
10:00 0°C° 0 mm 0 m/s 759 mmHg 59%
11:00 0°C° 0 mm 0 m/s 759 mmHg 56%
12:00 +1°C° 0 mm 0 m/s 759 mmHg 53%
13:00 +2°C° 0 mm 1 m/s 759 mmHg 50%
14:00 +2°C° 0 mm 1 m/s 758 mmHg 50%
15:00 +2°C° 0 mm 1 m/s 758 mmHg 51%
16:00 +2°C° 0 mm 1 m/s 757 mmHg 51%
17:00 +1°C° 0 mm 1 m/s 758 mmHg 55%
18:00 0°C° 0 mm 1 m/s 758 mmHg 59%
19:00 -3°C° 0 mm 2 m/s 758 mmHg 63%
20:00 -3°C° 0 mm 2 m/s 758 mmHg 64%
21:00 -3°C° 0 mm 2 m/s 758 mmHg 64%
22:00 -3°C° 0 mm 2 m/s 758 mmHg 65%
23:00 -3°C° 0 mm 2 m/s 758 mmHg 65%

10 Martie, Miercuri

Timp Temperatura Precipitaţii Vânt Presiune Umiditate
00:00 -1°C° 0 mm 1 m/s 758 mmHg 66%
01:00 -1°C° 0 mm 1 m/s 758 mmHg 66%
02:00 -1°C° 0 mm 1 m/s 758 mmHg 67%
03:00 -1°C° 0 mm 1 m/s 758 mmHg 68%
04:00 -1°C° 0 mm 1 m/s 757 mmHg 69%
05:00 -2°C° 0 mm 0 m/s 758 mmHg 68%
06:00 -2°C° 0 mm 0 m/s 758 mmHg 68%
07:00 -2°C° 0 mm 0 m/s 758 mmHg 68%
08:00 0°C° 0 mm 0 m/s 758 mmHg 63%
09:00 +1°C° 0 mm 0 m/s 759 mmHg 58%
10:00 +3°C° 0 mm 1 m/s 759 mmHg 53%
11:00 +3°C° 0 mm 1 m/s 759 mmHg 50%
12:00 +4°C° 0 mm 1 m/s 759 mmHg 47%
13:00 +3°C° 0 mm 2 m/s 759 mmHg 43%
14:00 +3°C° 0 mm 2 m/s 759 mmHg 45%
15:00 +4°C° 0 mm 1 m/s 759 mmHg 46%
16:00 +4°C° 0 mm 1 m/s 758 mmHg 47%
17:00 +3°C° 0 mm 1 m/s 759 mmHg 51%
18:00 +2°C° 0 mm 1 m/s 759 mmHg 54%
19:00 0°C° 0 mm 1 m/s 759 mmHg 58%
20:00 0°C° 0 mm 1 m/s 759 mmHg 59%
21:00 0°C° 0 mm 1 m/s 759 mmHg 61%
22:00 -2°C° 0 mm 2 m/s 759 mmHg 62%
23:00 -2°C° 0 mm 2 m/s 759 mmHg 62%

11 Martie, Joi

Timp Temperatura Precipitaţii Vânt Presiune Umiditate
00:00 -3°C° 0 mm 2 m/s 759 mmHg 63%
01:00 -3°C° 0 mm 2 m/s 758 mmHg 63%
02:00 -4°C° 0 mm 3 m/s 758 mmHg 63%
03:00 -4°C° 0 mm 3 m/s 757 mmHg 63%
04:00 -4°C° 0 mm 3 m/s 756 mmHg 62%
05:00 -3°C° 0 mm 4 m/s 756 mmHg 60%
06:00 -3°C° 0 mm 4 m/s 756 mmHg 58%
07:00 -2°C° 0 mm 5 m/s 755 mmHg 56%
08:00 -2°C° 0 mm 6 m/s 755 mmHg 53%
09:00 -1°C° 0 mm 6 m/s 754 mmHg 50%
10:00 0°C° 0 mm 7 m/s 753 mmHg 48%
11:00 +2°C° 0 mm 7 m/s 753 mmHg 53%
12:00 +2°C° 0 mm 7 m/s 752 mmHg 58%
13:00 +1°C° 0 mm 8 m/s 751 mmHg 63%
14:00 0°C° 0.6 mm 7 m/s 750 mmHg 74%
15:00 -1°C° 0.6 mm 7 m/s 749 mmHg 85%
16:00 -1°C° 0.6 mm 7 m/s 748 mmHg 96%
17:00 -1°C° 0.7 mm 7 m/s 748 mmHg 95%
18:00 0°C° 0.7 mm 7 m/s 747 mmHg 95%
19:00 0°C° 0.7 mm 7 m/s 746 mmHg 94%
20:00 +2°C° 1.1 mm 7 m/s 746 mmHg 93%
21:00 +3°C° 1.1 mm 7 m/s 746 mmHg 92%
22:00 +4°C° 1.1 mm 8 m/s 745 mmHg 91%
23:00 +4°C° 0.1 mm 7 m/s 745 mmHg 90%

12 Martie, Vineri

Timp Temperatura Precipitaţii Vânt Presiune Umiditate
00:00 +3°C° 0.1 mm 6 m/s 746 mmHg 90%
01:00 +3°C° 0.1 mm 5 m/s 746 mmHg 90%
02:00 +3°C° 0 mm 5 m/s 746 mmHg 90%
03:00 +3°C° 0 mm 5 m/s 746 mmHg 90%
04:00 +2°C° 0 mm 5 m/s 746 mmHg 89%
05:00 +2°C° 0 mm 6 m/s 747 mmHg 88%
06:00 +2°C° 0 mm 6 m/s 747 mmHg 88%
07:00 +2°C° 0 mm 6 m/s 747 mmHg 87%
08:00 +3°C° 0.1 mm 7 m/s 747 mmHg 82%
09:00 +4°C° 0.1 mm 8 m/s 748 mmHg 76%
10:00 +5°C° 0.1 mm 9 m/s 748 mmHg 71%
11:00 +6°C° 0.2 mm 9 m/s 748 mmHg 66%
12:00 +6°C° 0.2 mm 9 m/s 748 mmHg 62%
13:00 +7°C° 0.2 mm 9 m/s 748 mmHg 57%
14:00 +6°C° 0 mm 8 m/s 749 mmHg 58%
15:00 +6°C° 0 mm 7 m/s 749 mmHg 59%
16:00 +7°C° 0 mm 6 m/s 749 mmHg 59%
17:00 +5°C° 0 mm 6 m/s 749 mmHg 64%
18:00 +5°C° 0 mm 5 m/s 749 mmHg 69%
19:00 +4°C° 0 mm 4 m/s 750 mmHg 74%
20:00 +3°C° 0 mm 4 m/s 750 mmHg 74%
21:00 +3°C° 0 mm 4 m/s 750 mmHg 75%
22:00 +3°C° 0 mm 4 m/s 750 mmHg 75%
23:00 +2°C° 0 mm 5 m/s 749 mmHg 75%
Arată mai mult

Formular de consimțământ

Meteoprog și furnizorii noștri de servicii pot stoca și accesa date personale, precum cookies, identificatori de dispozitiv sau alte tehnologii similare pe dispozitivul dumneavoastră și procesa astfel de date pentru a personaliza conținutul și reclamele, dar și pentru a oferi caracteristici de social media și pentru a analiza traficul.

  • Stocarea și/sau accesarea informațiilor pe dispozitivul dumneavoastră

    Cookies, identificatori de dispozitiv sau alte informații pot fi stocate sau accesate pe dispozitiv în scopurile indicate mai sus.

  • Reclame și conținut personalizat, evaluarea reclamelor și a conținutului, informații despre audiențe și dezvoltarea produselor

    Reclamele și conținutul pot fi personalizate pe baza unui profil. Pot fi adăugate date suplimentare pentru a personaliza mai bine reclamele și conținutul. Performanța reclamelor și conținutului poate fi măsurată. Pot fi obținute informații despre utilizatorii care au văzut reclamele și conținutul. Aceste date pot fi utilizate pentru a dezvolta sau îmbunătăți experiența utilizatorilor, sistemele și software-ul.

Dând clic pe ‘Sunt de acord’, permiteți utilizarea cookie-urilor menționate, a identificatorilor de dispozitiv, balizelor web sau altor tehnologii similare. Setările pot fi modificate din browser-ul dispozitivului dumneavoastră.

În anumite scopuri, interesele legitime pot prima asupra consimțământului. Puteți citi mai multe informații în acest sens în Politica privind Confidențialitatea Datelor și Cookie.